SL-8 R/B

Satellite information

Favourite Embed

Satellite Type and Status

ROCKET BODYIN ORBIT

Key statistics

Satellite SL-8 R/B at a glance.

Uptime

10486

Days in orbit

Revolutions

≈ 13.7

Per day

Orbit

LEO

Low Earth Orbit

Inclination

82.9

Latest

Satellite identification and parameters

Extended collection of information and parameters for SL-8 R/B.

Object identification

Identified? True

Debris? False

Object name: SL-8 R/B

International designator: 1996-071B

Object number (NORAD): 24678

Object ID (CCSDS): 24678

Country: COMMONWEALTH OF INDEPENDENT STATES (CIS)

Current information (Y/N): Y

RCS size: LARGE

Orbital parameters

Period: 104.817 minutes

Inclination: 82.94 deg

SMA: 7364.018 km

Apoapsis: 1003.076 km

Periapsis: 968.689 km

RAAN: 28.7419 deg

Eccentricy: 0.00233481

Argument of periapsis: 243.6982 deg

Mean anomaly: 252.8334 deg

Mean motion: 13.73822209 rev/day

Mean motion (dot): 0.00000047 rev/day2

B* drag term: 0.000034269047 1/REarth

Two-line elements (TLE)

Creation date: Sept. 4, 2025, 10:13 a.m.

Reference frame: TEME

Reference center: EARTH

Epoch: Sept. 3, 2025, 11:13 p.m. UTC

TLE line 0: 0 SL-8 R/B

TLE line 1: 1 24678U 96071B 25246.96789649 .00000047 00000-0 34269-4 0 9996

TLE line 2: 2 24678 82.9400 28.7419 0023348 243.6982 252.8334 13.73822209439029

Live tracking on map

Real-time ground track for satellite SL-8 R/B.

In-orbit conjunctions

A list of the most updated potential collisions computed for object SL-8 R/B.

Target Orbit TCA Probability of collision Miss distance Type
SL-14 DEB LEO 2024-11-10 20:49:50 0.000217706 384.0 (m) DEBRIS
COSMOS 1375 DEB LEO 2024-11-03 07:27:41 0.001281707 55.0 (m) DEBRIS
THOR ABLESTAR DEB LEO 2024-10-21 06:34:05 0.0002439865 74.0 (m) DEBRIS
SL-8 R/B LEO 2024-09-12 21:10:08 0.0001058083 442.0 (m) ROCKET BODY

Associated space launch

Navigation satellite providing location information for the Tsiklon-B navigation system

SL-8 R/B was lifted into orbit during the mission ‘Kosmos-3M | Parus 87’, on board a Kosmos-3M space rocket.

The launch took place on Dec. 20, 1996, 6:43 a.m. from 132/1 (132L).

For more information about the launch, click the button.

Launch to space Kosmos-3M | Parus 87
Kosmos-3M | Parus 87

Agency: N/A

Status: Launch Successful

Launch date: Dec. 20, 1996, 6:43 a.m. UTC

Rocket: Kosmos-3M

Launch pad: 132/1 (132L)

Location: Plesetsk Cosmodrome, Russian Federation

...

Latest news about this satellite

There are no fresh news available about this satellite. Check back as we update our databases every day.


Newsletter sign-up

Weekly statistics, charts and insights to help you stay on top of the space industry.